User: anonymous   Login
Location: Newark
(34.1333°N, 7.9667°W)
Time: 06:12:48
(UTC+00:00)
Language:

DUCHIFAT 1 - Orbit

View from above orbital plane
View from above orbital plane
View from above satellite
View from above satellite

Ground track
Ground track

The orbit data is extracted from the following two-line orbital elements,

1 40021U 14033M   23158.53484806  .00006610  00000-0  56671-3 0  9996
2 40021  98.0589 122.1830 0009648 315.2451  44.7991 14.97841817487747
Epoch (UTC): 07 June 2023 12:50:10
Eccentricity: 0.0009648
inclination: 98.0589°
perigee height: 567 km
apogee height: 580 km
right ascension of ascending node: 122.1830°
argument of perigee: 315.2451°
revolutions per day: 14.97841817
mean anomaly at epoch: 44.7991°
orbit number at epoch: 48774

The dashed part of the orbit path shows where the satellite is in the earth's shadow,  

DLR